Location: Zapote
(9.9191°N, 84.0597°W)
Time: 11:02:16
(UTC-06:00)

S-56A Canister/Altair - All Passes

Search period start: 26 February 2021 00:00
Search period end: 08 March 2021 00:00
Orbit: 632 x 2501 km, 38.9° (Epoch: 25 February)

Date Brightness Start Highest point End Pass type
(mag) Time Alt. Az. Time Alt. Az. Time Alt. Az.
26 Feb - 10:06:43 10° S 10:14:57 26° SE 10:25:20 10° E daylight
26 Feb - 12:08:20 10° SW 12:20:16 87° SE 12:35:32 10° NE daylight
26 Feb - 14:15:24 10° W 14:28:01 39° NNW 14:41:33 10° NE daylight
26 Feb - 16:28:51 10° NW 16:38:15 19° NNW 16:46:57 10° NNE daylight
26 Feb - 18:42:09 10° NNW 18:49:28 16° N 18:55:40 10° NE visible
26 Feb - 20:48:46 10° NNW 20:58:15 32° NNE 21:04:55 10° E visible
26 Feb - 22:54:58 10° WNW 23:03:36 64° SW 23:09:19 10° SE night (unlit)
27 Feb - 09:34:57 10° S 09:41:52 20° SE 09:50:25 10° E daylight
27 Feb - 11:35:33 10° SW 11:46:48 78° SE 12:01:46 10° NE daylight
27 Feb - 13:41:46 10° W 13:54:11 43° NNW 14:08:12 10° NE daylight
27 Feb - 15:54:13 10° WNW 16:04:13 20° NNW 16:13:47 10° NNE daylight
27 Feb - 18:07:56 10° NNW 18:15:40 16° N 18:22:20 10° NE visible
27 Feb - 20:15:09 10° NNW 20:24:59 30° NNE 20:32:03 10° E visible
27 Feb - 22:21:21 10° NW 22:30:53 79° SW 22:37:03 10° SE visible
28 Feb - 09:03:37 10° SSE 09:08:52 15° SE 09:15:02 10° E daylight
28 Feb - 11:02:55 10° SW 11:13:25 68° SE 11:27:54 10° NE daylight
28 Feb - 13:08:19 10° WSW 13:20:23 47° NNW 13:34:45 10° NE daylight
28 Feb - 15:19:45 10° WNW 15:30:11 22° NNW 15:40:30 10° NNE daylight
28 Feb - 17:33:39 10° NNW 17:41:46 17° N 17:48:55 10° NE daylight
28 Feb - 19:41:29 10° NNW 19:51:37 28° NNE 19:59:05 10° E visible
28 Feb - 21:47:43 10° NW 21:58:04 87° NE 22:04:42 10° SE visible
28 Feb - 23:57:59 10° W 00:01:21 14° SW 00:04:17 10° SSW night (unlit)
01 Mar - 08:33:39 10° SE 08:35:54 11° SE 08:38:18 10° ESE daylight
01 Mar - 10:30:24 10° SSW 10:40:11 59° SE 10:53:55 10° ENE daylight
01 Mar - 12:35:02 10° WSW 12:46:40 52° NW 13:01:13 10° NE daylight
01 Mar - 14:45:28 10° WNW 14:56:09 24° NNW 15:07:08 10° NNE daylight
01 Mar - 16:59:20 10° NW 17:07:47 17° N 17:15:25 10° NE daylight
01 Mar - 19:07:46 10° NNW 19:18:08 27° NNE 19:26:00 10° ENE visible
01 Mar - 21:14:03 10° NW 21:25:09 76° NE 21:32:15 10° ESE visible
01 Mar - 23:23:15 10° W 23:28:46 19° SW 23:33:07 10° S night (unlit)
02 Mar - 09:58:02 10° SSW 10:07:02 50° SE 10:19:51 10° ENE daylight
02 Mar - 12:01:55 10° WSW 12:13:02 57° NW 12:27:37 10° NE daylight
02 Mar - 14:11:23 10° WNW 14:22:09 25° NNW 14:33:41 10° NNE daylight
02 Mar - 16:25:00 10° NW 16:33:45 17° N 16:41:49 10° NE daylight
02 Mar - 18:34:00 10° NNW 18:44:33 26° NNE 18:52:48 10° ENE visible
02 Mar - 20:40:22 10° NW 20:52:06 66° NE 20:59:43 10° ESE visible
02 Mar - 22:48:57 10° WNW 22:56:09 26° SW 23:01:29 10° S visible
03 Mar - 09:25:47 10° SSW 09:34:00 41° SE 09:45:41 10° ENE daylight
03 Mar - 11:28:56 10° WSW 11:39:29 63° NW 11:53:57 10° NE daylight
03 Mar - 13:37:29 10° WNW 13:48:12 27° NNW 14:00:11 10° NNE daylight
03 Mar - 15:50:41 10° NW 15:59:38 18° N 16:08:10 10° NE daylight
03 Mar - 18:00:12 10° NNW 18:10:51 24° NNE 18:19:27 10° ENE visible
03 Mar - 20:06:39 10° NW 20:18:57 59° NE 20:27:05 10° ESE visible
03 Mar - 22:14:47 10° WNW 22:23:30 34° SW 22:29:36 10° SSE visible
04 Mar - 08:53:41 10° SSW 09:01:05 34° SE 09:11:23 10° ENE daylight
04 Mar - 10:56:06 10° WSW 11:06:02 71° NW 11:20:14 10° NE daylight
04 Mar - 13:03:47 10° WNW 13:14:17 29° NNW 13:26:36 10° NNE daylight
04 Mar - 15:16:27 10° NW 15:25:30 18° N 15:34:25 10° NE daylight
04 Mar - 17:26:24 10° NNW 17:37:03 23° NNE 17:45:58 10° ENE daylight
04 Mar - 19:32:57 10° NW 19:45:40 53° NNE 19:54:21 10° ESE visible
04 Mar - 21:40:43 10° WNW 21:50:46 43° SW 21:57:34 10° SSE visible
05 Mar - 08:21:46 10° S 08:28:14 26° SE 08:36:58 10° ENE daylight
05 Mar - 10:23:23 10° SW 10:32:42 79° NW 10:46:28 10° NE daylight
05 Mar - 12:30:15 10° W 12:40:28 32° NNW 12:52:58 10° NNE daylight
05 Mar - 14:42:17 10° NW 14:51:22 18° N 15:00:37 10° NNE daylight
05 Mar - 16:52:35 10° NNW 17:03:09 22° NNE 17:12:21 10° ENE daylight
05 Mar - 18:59:14 10° NW 19:12:17 48° NNE 19:21:30 10° ESE visible
05 Mar - 21:06:42 10° WNW 21:17:56 53° SW 21:25:24 10° SSE visible
06 Mar - 07:50:06 10° S 07:55:28 20° SE 08:02:21 10° E daylight
06 Mar - 09:50:47 10° SW 09:59:29 89° NW 10:12:39 10° NE daylight
06 Mar - 11:56:53 10° W 12:06:44 34° NNW 12:19:19 10° NNE daylight
06 Mar - 14:08:14 10° NW 14:17:15 19° N 14:26:46 10° NNE daylight
06 Mar - 16:18:49 10° NNW 16:29:12 21° NNE 16:38:33 10° ENE daylight
06 Mar - 18:25:33 10° NW 18:38:47 44° NNE 18:48:31 10° E visible
06 Mar - 20:32:44 10° WNW 20:45:00 64° SW 20:53:07 10° SE visible
07 Mar - 07:18:54 10° SSE 07:22:45 15° SE 07:27:19 10° E daylight
07 Mar - 09:18:17 10° SW 09:26:22 81° SE 09:38:49 10° NE daylight
07 Mar - 11:23:40 10° W 11:33:05 36° NNW 11:45:37 10° NE daylight
07 Mar - 13:34:18 10° NW 13:43:11 19° N 13:52:51 10° NNE daylight
07 Mar - 15:45:03 10° NNW 15:55:09 20° NNE 16:04:37 10° NE daylight
07 Mar - 17:51:52 10° NW 18:05:12 40° NNE 18:15:25 10° E visible
07 Mar - 19:58:48 10° NW 20:11:57 75° SW 20:20:42 10° SE visible
07 Mar - 22:10:55 10° W 22:15:47 15° SW 22:19:55 10° SSW visible
